Погода в Малом Полпине

Россия / Брянская область     53°16′38″N   34°37′21″E
темп.,
°C
ветер,
м/с
пор.,
м/с
влажн.,
%
обл.,
%
осадки,
мм/ч
давл.,
гПа
погр.,
м
31 июля, сб
сб3100:00+17зюз24810 0.0 100861
03:00+16зюз258235 0.0 100897
06:00+19юз2771100 0.0 1008210
09:00+22зюз38630 0.0 1008557
12:00+26з510506 0.0 10081978
15:00+27з694376 0.0 10091989
18:00+26з374930 0.0 10091663
21:00+20юз1272100 0.0 101011
1 августа, вс
вс100:00+18ю227467 0.0 101119
03:00+17ю237612 0.0 101164
06:00+18ююв287544 0.0 1011175
09:00+24ююз47565 0.0 1011483
12:00+29юз474473 0.0 10111608
15:00+31юз463712 0.0 10102692
18:00+29юз2548100 0.0 1009322
21:00+21с1183100 0.1 101018
2 августа, пн
пн200:00+20зсз1184100 0.0 101011
03:00+20юв2282100 0.1 100927
06:00+20ююв248191 0.0 1008124
09:00+24ююз476599 0.0 1007604
12:00+28ююз575189 0.0 10061212
15:00+30ююз584386 0.0 10051635
18:00+29ююз385440 0.0 10031255
21:00+20сз3493100 2.3 100369
3 августа, вт
вт300:00+18ю3897100 3.8 1005333
03:00+16юз41097100 3.9 1005617
06:00+16з41097100 0.9 1007703
09:00+17зсз599198 1.2 1009722
12:00+21з466264 0.1 10111404
15:00+21з3671100 1.9 10111132
18:00+20зюз367962 1.9 1011270
21:00+16з229113 2.4 101325
4 августа, ср
ср400:00+14зюз22901 0.0 101416
03:00+13зюз22934 0.0 101517
06:00+13з11935 0.0 101524
09:00+18зсз23710 0.0 1016487
12:00+23з35501 0.0 10161672
15:00+22зсз345113 0.2 10161535
18:00+21сз2362100 0.0 1016326
21:00+16с00815 0.2 101711